Location: Sternwarte_Laufen
(47.9344°N, 12.9346°E)
Time: 07:08:50
(UTC+02:00)

Courier 1B Rocket - Visible Passes

Search period start: 08 June 2026 00:00
Search period end: 18 June 2026 00:00
Orbit: 920 x 1201 km, 28.2° (Epoch: 7 June)

Date Brightness Start Highest point End Pass type
(mag) Time Alt. Az. Time Alt. Az. Time Alt. Az.
9 Jun 6.9 22:25:05 10° S 22:27:38 12° SSE 22:28:12 12° SSE visible
10 Jun 6.8 23:14:32 10° SSW 23:17:47 15° S 23:17:47 15° S visible
11 Jun 6.9 22:14:10 10° SSW 22:17:51 14° SSE 22:20:41 12° SE visible
12 Jun 7.0 00:05:34 10° SW 00:07:03 13° SSW 00:07:03 13° SSW visible
12 Jun 6.7 23:04:34 10° SSW 23:09:06 17° S 23:09:44 16° S visible
13 Jun 6.8 22:03:54 10° SSW 22:08:05 16° S 22:12:15 10° SE visible
13 Jun 6.9 23:56:07 10° SW 23:58:35 15° SSW 23:58:35 15° SSW visible
14 Jun 6.7 22:54:55 10° SW 22:59:21 16° S 23:00:59 15° SSE visible
15 Jun 6.8 21:54:02 10° SSW 21:58:20 16° S 22:02:44 10° SE visible
15 Jun 7.0 23:47:02 10° SW 23:49:37 13° SSW 23:49:37 13° SSW visible
16 Jun 6.8 22:45:33 10° SW 22:49:37 15° S 22:51:53 13° SSE visible
17 Jun 6.9 21:44:28 10° SW 21:48:37 16° S 21:52:52 10° SSE visible
17 Jun 7.1 23:38:45 10° SSW 23:40:26 11° SSW 23:40:26 11° SSW visible
